Погода в Дзарджане

Погода в Дзарджане : погода сейчас, прогноз погоды и архив. Всё, что Вы хотите узнать о погоде в Дзарджане!

Поиск расширенной информации на нашем сайте:

Другие новости

Новости СМИ2

Главная страница сайта

Новости сайта

03.07.2017

Напоминаем, что на нашем специализированном сайте Метеоцентр.Азия вы можете получить высокодетализированные автоматические прогнозы погоды по пунктам России, СНГ и мира в авиационном формате (включающие направление и скорость ветра, видимость, явления погоды, количество и форму облачности, нижнюю и верхнюю границу облачности).


Погода в Дзарджане - сегодня

Время (UTC), дата Ветер
(°,м/с) 
Видим.   Явления Облачность Т
(°С)
Тd
(°С)
f(%) Тe
(°С)
Pmin
(гПа)
dP
(гПа)
Po
(мм)
O2
(г/м3)
Тmin Tmax R s Состояние
почвы
12 17.02.18 тихо ()   20000 м    10/0 верхняя 
[Ci fib]
-33.8 -36.8 74 -34  1022.5  0.3  763  353    -32.8       
15 17.02.18 тихо ()   20000 м    10/0 верхняя 
[Cs]
-34.1 -37.1 74 -34  1022.8  0.3  763  353           
18 17.02.18 тихо ()   20000 м    10/0 верхняя 
[Cs]
-36.5 -39.4 74 -37  1023.2  0.4  763  357           
21 17.02.18 050 (СВ) 20000 м    10/0 верхняя 
[Cs]
-35.7 -39.3 69 -37  1022.5  0.3  763  356           
00 18.02.18 050 (СВ) 20000 м    10/0 средняя 
[Ac As]
-35.2 -38.7 70 -36  1023.7  0.2  764  355  -36.5      28  неравномерный
сухой снег
100% 
03 18.02.18 тихо ()   20000 м    10/0 средняя 
[Ac As]
-34.4 -38.1 69 -34  1023.7  764  354           
06 18.02.18 тихо ()   20000 м    3/0 верхняя 
[Ci fib]
-33 -36.7 69 -33  1023.7  764  352           
09 18.02.18 тихо ()   20000 м    3/0 верхняя 
[Ci fib]
-34 -37.5 71 -34  1023.7  764  353           
12 18.02.18 тихо ()   20000 м    ясно 
-36.2 -39 76 -36  1023.5  -0.2  763  357    -32.8       
15 18.02.18 020 (С) 20000 м    ясно 
-36.7 -40.4 68 -38  1023.2  -0.3  763  357           
18 18.02.18 020 (С) 20000 м    3/0 верхняя 
[Ci fib]
-37 -40.4 70 -38  1022.5  -0.7  763  358           
21 18.02.18 050 (СВ) 20000 м    ясно 
-39.5 -42.9 70 -41  1022.2  -0.4  762  361           
00 19.02.18 050 (СВ) 20000 м    ясно 
-40.2 -43.3 72 -41  1021.6  -0.6  762  362  -40.2      28  неравномерный
сухой снег
100% 
03 19.02.18 тихо ()   20000 м    ясно 
-37 -40.4 70 -37  1021.2  -0.3  762  357           
06 19.02.18 тихо ()   20000 м    ясно 
-34.2 -37.8 70 -34  1020.5  -0.6  761  353           
09 19.02.18 тихо ()   20000 м    ясно 
-37.2 -40.7 70 -37  1020.5  761  357           
12 19.02.18 тихо ()   20000 м    ясно 
-37 -40.4 70 -37  1020.5  761  357    -34       
15 19.02.18 тихо ()   20000 м    ясно 
-38.1 -41.5 70 -38  1019.5  -1.1  760  358           
18 19.02.18 050 (СВ) 20000 м    ясно 
-39.2 -42.4 72 -40  1018.8  -0.7  760  360           
21 19.02.18 050 (СВ) 20000 м    ясно 
-39.8 -43.3 69 -41  1017.7  -1.1  759  360           
00 20.02.18 050 (СВ) 20000 м    4/0 верхняя 
[Ci fib]
-39.5 -42.9 70 -41  1016.8  -0.9  758  359  -39.8      28  неравномерный
сухой снег
100% 
03 20.02.18 тихо ()   20000 м    9/0 средняя 
[Ac und]
-35.5 -39 70 -36  1015.9  -0.8  758  353           
06 20.02.18 230 (ЮЗ) 20000 м    10/0 средняя 
[Ac und]
-32.8 -35.7 75 -34  1015  -0.9  757  349           
09 20.02.18 180 (Ю) 20000 м    10/0 средняя 
[Ac As]
-30.8 -33.8 75 -32  1014.3  -0.6  757  346           
15 20.02.18 160 (Ю) 10 км  слаб. снег  10/0 средняя 
[As op]
-28.6 -31.6 75 -32  1011.5  -1.6  755  341           
Время (UTC), дата Ветер
(°,м/с) 
Видим.   Явления Облачность Т
(°С)
Тd
(°С)
f(%) Тe
(°С)
Pmin
(гПа)
dP
(гПа)
Po
(мм)
O2
(г/м3)
Тmin Tmax R s Состояние
почвы

Для получения пояснительной информации подведите курсор к названию столбца.

ПОГОДА в Дзарджане - архив

Всё, что Вы хотите узнать о погоде в Дзарджане - удобно и подробно!

Выберите нужную дату (начиная с 1 января 2015* года) и нажмите кнопку "Найти".
Будут отображены архивные сводки погоды по пункту Дзарджан, начиная с указанной даты.


Отображать данные в формате CSV (для использования в таблицах Excel)


Внимание! Наш архив погоды предназначен исключительно для личного некоммерческого использования в познавательных целях. Если Вам необходимы официальные справки о состоянии погоды (для производственных, юридических, коммерческих и т.п. целей), обращайтесь в органы Росгидромета.

*Примечание: данная дата относится к архиву по метеостанциям СССР (Россия, СНГ, Балтия).
Архив по метеостанциям Зарубежной Европы и Азии (кроме Китая) хранится 10 дней, по другим регионам земного шара (Китай, Африка, Америка, Австралия, Океания) - 1 день.

Дзарджан - район местоположения метеостанции


Название, широта, долгота, высота метеостанции:
Дзарджан 68.7°ш. 124°д. 39 м над ур. моря [Российская Федерация]

Дополнительная информация

В oтличие oт бoльшинства пoгoдных сайтoв мы публикуем пoдрoбную метеoинфoрмацию в детальнoм прoфессиoнальнoм фoрмате.

Характеристики температуры и влажнoсти вoздуха измеряются на высoте 2 м в тени вдали oт зданий и деревьев.
Скoрoсть ветра измеряется на высoте 10 м (на урoвне рoста челoвека скoрoсть ветра ниже в 1.5-2 раза). Если метеoстанция нахoдится в гoрoде или в лесу, тo скoрoсть ветра занижена на 2-4 м/с пo сравнению с oткрытым местoм. Скoрoсть ветра над акватoриями крупных рек и oзёр, а также на вершинах хoлмoв на 2-5 м/с выше, чем в oбычных услoвиях.
Атмoсфернoе давление в разных тoчках местнoсти мoжет значительнo oтличаться oт давления на метеoстанции, в зависимoсти oт услoвий рельефа (при пoдъёме на 10 м давление пoнижается примернo на 1 мм рт.ст.).